Meteo pe oră la Alibaevo

Astăzi, 22 Ianuarie, Vineri

Timp Temperatura Precipitaţii Vânt Presiune Umiditate
00:00 -26°C° 0.1 mm 2 m/s 738 mmHg 98%
01:00 -25°C° 0.1 mm 2 m/s 737 mmHg 98%
02:00 -25°C° 0.1 mm 2 m/s 737 mmHg 98%
03:00 -25°C° 0.1 mm 2 m/s 738 mmHg 98%
04:00 -25°C° 0.1 mm 2 m/s 738 mmHg 98%
05:00 -25°C° 0.1 mm 2 m/s 737 mmHg 98%
06:00 -25°C° 0.1 mm 2 m/s 737 mmHg 98%
07:00 -25°C° 0.1 mm 2 m/s 737 mmHg 99%
08:00 -24°C° 0.1 mm 2 m/s 737 mmHg 98%
09:00 -23°C° 0.1 mm 2 m/s 737 mmHg 98%
10:00 -24°C° 0.1 mm 3 m/s 737 mmHg 97%
11:00 -23°C° 0.1 mm 3 m/s 737 mmHg 96%
12:00 -22°C° 0.1 mm 3 m/s 737 mmHg 96%
13:00 -19°C° 0.1 mm 3 m/s 737 mmHg 95%
14:00 -19°C° 0.2 mm 3 m/s 737 mmHg 95%
15:00 -19°C° 0.2 mm 3 m/s 737 mmHg 95%
16:00 -18°C° 0.2 mm 3 m/s 737 mmHg 95%
17:00 -18°C° 0.1 mm 3 m/s 737 mmHg 96%
18:00 -19°C° 0.1 mm 3 m/s 737 mmHg 96%
19:00 -18°C° 0.1 mm 2 m/s 737 mmHg 97%
20:00 -18°C° 0.1 mm 2 m/s 737 mmHg 97%
21:00 -17°C° 0.1 mm 1 m/s 738 mmHg 97%
22:00 -17°C° 0.1 mm 1 m/s 738 mmHg 97%
23:00 -18°C° 0 mm 1 m/s 738 mmHg 98%

Mâine, 23 Ianuarie, Sâmbătă

Timp Temperatura Precipitaţii Vânt Presiune Umiditate
00:00 -19°C° 0 mm 1 m/s 738 mmHg 99%
01:00 -20°C° 0 mm 1 m/s 739 mmHg 99%
02:00 -20°C° 0 mm 1 m/s 739 mmHg 98%
03:00 -21°C° 0 mm 1 m/s 740 mmHg 97%
04:00 -21°C° 0 mm 1 m/s 740 mmHg 96%
05:00 -21°C° 0 mm 1 m/s 741 mmHg 94%
06:00 -21°C° 0 mm 1 m/s 742 mmHg 92%
07:00 -21°C° 0 mm 1 m/s 743 mmHg 90%
08:00 -24°C° 0 mm 2 m/s 744 mmHg 91%
09:00 -23°C° 0 mm 2 m/s 744 mmHg 91%
10:00 -23°C° 0 mm 2 m/s 745 mmHg 92%
11:00 -21°C° 0 mm 2 m/s 745 mmHg 91%
12:00 -20°C° 0 mm 2 m/s 745 mmHg 90%
13:00 -19°C° 0 mm 2 m/s 746 mmHg 89%
14:00 -19°C° 0 mm 2 m/s 746 mmHg 90%
15:00 -19°C° 0 mm 2 m/s 746 mmHg 91%
16:00 -20°C° 0 mm 2 m/s 746 mmHg 92%
17:00 -20°C° 0 mm 2 m/s 746 mmHg 93%
18:00 -20°C° 0 mm 2 m/s 746 mmHg 94%
19:00 -20°C° 0 mm 2 m/s 746 mmHg 95%
20:00 -20°C° 0.2 mm 2 m/s 745 mmHg 96%
21:00 -20°C° 0.2 mm 2 m/s 745 mmHg 96%
22:00 -19°C° 0.2 mm 2 m/s 745 mmHg 96%
23:00 -19°C° 0.3 mm 2 m/s 745 mmHg 96%

Poimâine, 24 Ianuarie, Duminică

Timp Temperatura Precipitaţii Vânt Presiune Umiditate
00:00 -18°C° 0.3 mm 2 m/s 744 mmHg 96%
01:00 -18°C° 0.3 mm 2 m/s 744 mmHg 96%
02:00 -17°C° 0.3 mm 2 m/s 744 mmHg 96%
03:00 -16°C° 0.3 mm 2 m/s 744 mmHg 96%
04:00 -16°C° 0.3 mm 2 m/s 743 mmHg 96%
05:00 -15°C° 0.3 mm 2 m/s 743 mmHg 95%
06:00 -14°C° 0.3 mm 2 m/s 743 mmHg 95%
07:00 -13°C° 0.3 mm 2 m/s 743 mmHg 95%
08:00 -10°C° 0.3 mm 2 m/s 743 mmHg 95%
09:00 -9°C° 0.3 mm 2 m/s 743 mmHg 95%
10:00 -7°C° 0.3 mm 2 m/s 743 mmHg 95%
11:00 -6°C° 0.5 mm 3 m/s 744 mmHg 96%
12:00 -4°C° 0.5 mm 4 m/s 744 mmHg 97%
13:00 -2°C° 0.5 mm 5 m/s 744 mmHg 98%
14:00 -4°C° 0.3 mm 5 m/s 744 mmHg 98%
15:00 -4°C° 0.3 mm 5 m/s 744 mmHg 97%
16:00 -4°C° 0.3 mm 5 m/s 744 mmHg 97%
17:00 -3°C° 0.3 mm 4 m/s 744 mmHg 97%
18:00 -3°C° 0.3 mm 4 m/s 744 mmHg 97%
19:00 -4°C° 0.3 mm 4 m/s 745 mmHg 97%
20:00 -4°C° 0.3 mm 4 m/s 745 mmHg 97%
21:00 -4°C° 0.3 mm 4 m/s 745 mmHg 97%
22:00 -2°C° 0.3 mm 3 m/s 745 mmHg 97%
23:00 -4°C° 0.3 mm 3 m/s 746 mmHg 97%

25 Ianuarie, Luni

Timp Temperatura Precipitaţii Vânt Presiune Umiditate
00:00 -4°C° 0.3 mm 3 m/s 746 mmHg 97%
01:00 -4°C° 0.3 mm 3 m/s 746 mmHg 97%
02:00 -4°C° 0.3 mm 3 m/s 746 mmHg 97%
03:00 -4°C° 0.3 mm 3 m/s 746 mmHg 97%
04:00 -4°C° 0.3 mm 3 m/s 747 mmHg 97%
05:00 -4°C° 0.1 mm 3 m/s 747 mmHg 97%
06:00 -3°C° 0.1 mm 2 m/s 747 mmHg 97%
07:00 -3°C° 0.1 mm 2 m/s 747 mmHg 98%
08:00 -3°C° 0.1 mm 2 m/s 747 mmHg 97%
09:00 -3°C° 0.1 mm 2 m/s 748 mmHg 97%
10:00 -3°C° 0.1 mm 2 m/s 748 mmHg 97%
11:00 -3°C° 0 mm 2 m/s 748 mmHg 97%
12:00 -3°C° 0 mm 2 m/s 748 mmHg 97%
13:00 -3°C° 0 mm 2 m/s 748 mmHg 96%
14:00 -4°C° 0 mm 2 m/s 748 mmHg 97%
15:00 -4°C° 0 mm 2 m/s 748 mmHg 97%
16:00 -4°C° 0 mm 2 m/s 747 mmHg 97%
17:00 -2°C° 0 mm 1 m/s 748 mmHg 97%
18:00 -2°C° 0 mm 1 m/s 748 mmHg 97%
19:00 -3°C° 0 mm 1 m/s 748 mmHg 97%
20:00 -3°C° 0 mm 1 m/s 748 mmHg 97%
21:00 -3°C° 0 mm 1 m/s 748 mmHg 96%
22:00 -2°C° 0 mm 1 m/s 748 mmHg 96%
23:00 -2°C° 0 mm 1 m/s 748 mmHg 96%

26 Ianuarie, Marţi

Timp Temperatura Precipitaţii Vânt Presiune Umiditate
00:00 -2°C° 0 mm 1 m/s 748 mmHg 97%
01:00 -2°C° 0 mm 1 m/s 747 mmHg 97%
02:00 -3°C° 0 mm 1 m/s 747 mmHg 97%
03:00 -4°C° 0 mm 1 m/s 748 mmHg 97%
04:00 -4°C° 0 mm 1 m/s 748 mmHg 97%
05:00 -4°C° 0 mm 1 m/s 748 mmHg 97%
06:00 -4°C° 0 mm 1 m/s 748 mmHg 97%
07:00 -4°C° 0 mm 1 m/s 748 mmHg 97%
08:00 -6°C° 0 mm 2 m/s 748 mmHg 96%
09:00 -5°C° 0 mm 2 m/s 748 mmHg 96%
10:00 -5°C° 0 mm 2 m/s 748 mmHg 95%
11:00 -5°C° 0 mm 2 m/s 748 mmHg 94%
12:00 -5°C° 0 mm 2 m/s 748 mmHg 94%
13:00 -6°C° 0 mm 3 m/s 748 mmHg 93%
14:00 -6°C° 0 mm 2 m/s 747 mmHg 93%
15:00 -7°C° 0 mm 2 m/s 747 mmHg 93%
16:00 -6°C° 0 mm 1 m/s 747 mmHg 92%
17:00 -8°C° 0 mm 1 m/s 747 mmHg 91%
18:00 -9°C° 0 mm 1 m/s 747 mmHg 89%
19:00 -10°C° 0 mm 1 m/s 747 mmHg 87%
20:00 -10°C° 0 mm 1 m/s 747 mmHg 86%
21:00 -10°C° 0 mm 1 m/s 747 mmHg 85%
22:00 -11°C° 0 mm 1 m/s 747 mmHg 85%
23:00 -11°C° 0 mm 1 m/s 747 mmHg 84%

27 Ianuarie, Miercuri

Timp Temperatura Precipitaţii Vânt Presiune Umiditate
00:00 -11°C° 0 mm 1 m/s 747 mmHg 84%
01:00 -11°C° 0 mm 1 m/s 747 mmHg 84%
02:00 -11°C° 0 mm 1 m/s 747 mmHg 84%
03:00 -12°C° 0 mm 1 m/s 747 mmHg 84%
04:00 -12°C° 0 mm 1 m/s 747 mmHg 83%
05:00 -12°C° 0 mm 1 m/s 747 mmHg 84%
06:00 -12°C° 0 mm 1 m/s 747 mmHg 84%
07:00 -14°C° 0 mm 2 m/s 747 mmHg 84%
08:00 -13°C° 0 mm 2 m/s 747 mmHg 85%
09:00 -12°C° 0 mm 2 m/s 747 mmHg 86%
10:00 -10°C° 0 mm 2 m/s 747 mmHg 87%
11:00 -9°C° 0 mm 2 m/s 747 mmHg 87%
12:00 -7°C° 0 mm 2 m/s 747 mmHg 86%
13:00 -6°C° 0 mm 2 m/s 747 mmHg 86%
14:00 -7°C° 0 mm 2 m/s 747 mmHg 87%
15:00 -7°C° 0 mm 2 m/s 746 mmHg 88%
16:00 -8°C° 0 mm 2 m/s 746 mmHg 88%
17:00 -8°C° 0 mm 2 m/s 746 mmHg 88%
18:00 -9°C° 0 mm 2 m/s 746 mmHg 87%
19:00 -10°C° 0 mm 2 m/s 746 mmHg 87%
20:00 -10°C° 0 mm 2 m/s 746 mmHg 87%
21:00 -10°C° 0 mm 2 m/s 746 mmHg 86%
22:00 -10°C° 0 mm 2 m/s 746 mmHg 86%
23:00 -10°C° 0 mm 2 m/s 745 mmHg 86%
Arată mai mult

Formular de consimțământ

Meteoprog și furnizorii noștri de servicii pot stoca și accesa date personale, precum cookies, identificatori de dispozitiv sau alte tehnologii similare pe dispozitivul dumneavoastră și procesa astfel de date pentru a personaliza conținutul și reclamele, dar și pentru a oferi caracteristici de social media și pentru a analiza traficul.

  • Stocarea și/sau accesarea informațiilor pe dispozitivul dumneavoastră

    Cookies, identificatori de dispozitiv sau alte informații pot fi stocate sau accesate pe dispozitiv în scopurile indicate mai sus.

  • Reclame și conținut personalizat, evaluarea reclamelor și a conținutului, informații despre audiențe și dezvoltarea produselor

    Reclamele și conținutul pot fi personalizate pe baza unui profil. Pot fi adăugate date suplimentare pentru a personaliza mai bine reclamele și conținutul. Performanța reclamelor și conținutului poate fi măsurată. Pot fi obținute informații despre utilizatorii care au văzut reclamele și conținutul. Aceste date pot fi utilizate pentru a dezvolta sau îmbunătăți experiența utilizatorilor, sistemele și software-ul.

Dând clic pe ‘Sunt de acord’, permiteți utilizarea cookie-urilor menționate, a identificatorilor de dispozitiv, balizelor web sau altor tehnologii similare. Setările pot fi modificate din browser-ul dispozitivului dumneavoastră.

În anumite scopuri, interesele legitime pot prima asupra consimțământului. Puteți citi mai multe informații în acest sens în Politica privind Confidențialitatea Datelor și Cookie.